Simultaneous Nadir Overpasses (SNOs) Predictions

Prediction of SNOs over PacNW region [( 10.00, 139.50) to ( 22.70, 165.60)] between AQUA and NPP Satellites:

Table of predicted SNOs over PacNW region for the next 30.0 days since TLE Epoch: 3/4/2017
Index Date (AQUA) Time (AQUA) AQUA Lat,Lon Date (NPP) Time (NPP) NPP Lat,Lon Distance(km) Time Diff (sec)
1 03/05/2017 15:10:02 22.62, 159.85 03/05/2017 15:10:58 23.21, 157.25 274.03 56
2 03/08/2017 03:31:55 22.70, 147.50 03/08/2017 03:28:25 26.92, 144.69 549.28 210
3 03/13/2017 15:59:33 22.61, 147.47 03/13/2017 16:01:36 23.24, 144.59 303.25 123
4 03/21/2017 15:10:11 22.61, 159.83 03/21/2017 15:10:46 23.19, 157.29 267.49 35
5 03/29/2017 15:59:40 22.63, 147.47 03/29/2017 16:01:22 23.28, 144.66 296.78 102




NCC Satellite Simultaneous Nadir Overpasses (SNOs) Prediction Service
